Regional Weather Roundup
Issued by NWS

Home | Current Version | Previous Version | Text Only | Print | Product List | Glossary Off
Versions: 1 2 3 4 5 6 7 8 9 10 11 12 13 14 15 16 17 18 19 20 21 22 23 24 25 26 27 28

000
ASUS45 KSLC 240710
RWRUT

UTAH REGIONAL WEATHER ROUNDUP
NATIONAL WEATHER SERVICE SALT LAKE CITY UT
100 AM MDT FRI OCT 24 2014

UTZ001>011-023>025-240800-

NORTHERN UTAH

CITY           SKY/WX    TMP DP  RH WIND       PRES   REMARKS
BRIGHAM CITY   CLOUDY    49  38  65 SE5       30.10R
HILL AFB       CLOUDY    58  36  43 S2        30.11R
LOGAN          CLEAR     44  38  79 SW3       30.11R
OGDEN          CLOUDY    53  36  52 S5        30.09R
PROVO AIRPORT  CLEAR     52  30  43 E7        30.13R
SALT LAKE CITY MOCLDY    53  41  63 NW8       30.09R
VERNAL         PTCLDY    44  35  70 CALM      30.21R
WENDOVER       CLOUDY    50  36  57 CALM      30.10R
HEBER CITY     CLEAR     41  30  65 SE5       30.17R
WEST JORDAN    CLEAR     63  37  39 S14       30.09S

$$

UTZ012>022-026-027-240800-

SOUTHERN/CENTRAL UTAH

CITY           SKY/WX    TMP DP  RH WIND       PRES   REMARKS
BLANDING       MOCLDY    47  31  52 N7        30.35S
BRYCE CANYON   PTCLDY    30  25  81 W7        30.36S WCI  23
CEDAR CITY     PTCLDY    44  28  53 VRB5      30.22R
DELTA          PTCLDY    57  27  31 S10       30.14S
HANKSVILLE       N/A     50  32  50 CALM      30.20R
MILFORD        PTCLDY    53  30  41 SW12      30.18S
MOAB/CYNLANDS  CLEAR     48  32  53 W3        30.17S
PRICE          PTCLDY    47  33  58 N5        30.24S
ST GEORGE      SUNNY     61  30  31 SW3       30.13S

$$

REGIONAL REPORTS     COLORADO/ARIZONA

CITY           SKY/WX    TMP DP  RH WIND       PRES   REMARKS
CRAIG, CO      MOCLDY    39  32  76 E3        30.26R
GRAND JUNCTION CLEAR     49  36  61 SE10      30.22R
RIFLE          PTCLDY    42  37  82 CALM      30.27R
MONTROSE       CLEAR     45  34  65 SE8       30.30R
CORTEZ         CLEAR     36  30  79 E5        30.32R WCI  32
PAGE, AZ       PTCLDY    59  34  39 CALM      30.19S
GRAND CANYON   CLEAR     35  25  66 CALM      30.33F HAZE
KINGMAN        CLEAR     57  38  48 SE13      30.13S
FLAGSTAFF      PTCLDY    38  31  76 CALM      30.36S

$$

REGIONAL REPORTS    NEVADA/IDAHO/WYOMING

CITY           SKY/WX    TMP DP  RH WIND       PRES   REMARKS
LAS VEGAS, NV  CLEAR     68  35  29 SW9       30.00S
ELY            PTCLDY    52  26  36 SW14      30.21R
ELKO           PTCLDY    43  22  43 E5        30.10S
POCATELLO, ID  CLOUDY    49  37  63 S5        30.13R
BURLEY         CLOUDY    47  40  76 S5        30.11S
EVANSTON, WY   MOCLDY    51  23  33 SW13      30.20S
ROCK SPRINGS   MOCLDY    46  25  43 CALM      30.19S
KEMMERER       CLOUDY    41  27  56 CALM      30.21S

$$



USA.gov is the U.S. government's official web portal to all federal, state and local government web resources and services.